Location: McFarlands Corners
(41.4117°N, 81.3382°W)
Time: 07:31:26
(UTC+00:00)

BlueWalker 3 - Pass Details

Date: 23 January 2026
Orbit: 450 x 461 km, 53.2° (Epoch: 11 February)

Event Time Altitude Azimuth Distance (km) Brightness Sun altitude
Rises 00:36:24 0° 258° (WSW) 2,450 6.9 -23.7°
Reaches altitude 10° 00:38:43 10° 270° (W) 1,579 5.5 -24.1°
Enters shadow 00:41:29 28° 320° (NW) 872 3.4 -24.6°
